[[{"header":{"parameterUnit":"m.s-1","parameterCategory":1,"la1":30.2991,"la2":30.254,"lo1":-89.0895,"lo2":-89.0444,"dy":0.0017,"dx":0.0017,"nx":28,"ny":28,"refTime":"2025-05-21T21:00:00:Z","depth":0,"parameterNumber":2,"parameterNumberName":"U-component_of_WINDS"},"data":[0,0,0,0,0,0,0,0,0,0,0,0,0,0,0,0,0,0,0,0,0,0,0,0,0,0,0,0,0,0,0,0,0,0,0,0,0,0,0,0,0,0,0,0,0,0,0,0,0,0,0,0,0,0,0,0,0,0,-2.2345,-2.2345,0,-2.24,-2.2401,-2.2401,-2.2294,-2.2291,-2.2287,-2.2284,-2.2344,-2.2349,-2.2354,0,0,0,0,0,0,0,0,0,0,0,0,0,-2.2152,-2.2156,-2.2345,-2.2346,-2.2346,-2.24,-2.2401,-2.2402,-2.2295,-2.229,-2.2286,-2.2282,-2.2343,-2.2348,-2.2354,0,0,0,0,0,0,0,0,0,0,0,0,0,-2.2225,-2.2157,-2.2345,-2.2299,-2.2296,-2.24,-2.2401,-2.2402,-2.2296,-2.229,-2.2285,-2.228,-2.2341,-2.2348,-2.2355,-2.2507,0,0,-2.2378,-2.2381,0,0,0,0,0,0,0,0,-2.2221,-2.2232,-2.2305,-2.2303,-2.2299,-2.2335,-2.2355,-2.2437,-2.2297,-2.2296,-2.2284,-2.2278,-2.2346,-2.2352,-2.2374,-2.251,-2.2512,-2.2378,-2.2383,-2.2386,-2.2388,0,0,0,0,0,0,0,-2.2216,-2.2229,-2.2367,-2.2307,-2.2303,-2.2278,-2.2282,-2.237,-2.235,-2.2296,-2.2288,-2.2296,-2.2343,-2.2368,-2.2375,-2.2513,-2.2378,-2.2385,-2.2389,-2.2392,-2.278,-2.2786,0,0,0,0,0,0,-2.2216,-2.2225,-2.2365,-2.2368,-2.2246,-2.2286,-2.2291,-2.2329,-2.2349,-2.2347,-2.23,-2.2291,-2.2358,-2.2367,-2.2377,-2.2559,-2.2386,-2.2393,-2.2397,-2.2774,-2.2781,-2.2788,0,0,0,0,0,0,-2.2212,-2.2229,-2.2363,-2.2295,-2.231,-2.2295,-2.2338,-2.2333,-2.2357,-2.2352,-2.2349,-2.2329,-2.2354,-2.2366,-2.2476,-2.2559,-2.2396,-2.2403,-2.2767,-2.2776,-2.2784,-2.2922,0,0,0,0,0,0,-2.2207,-2.2228,-2.2285,-2.2297,-2.2314,-2.246,-2.2343,-2.2337,-2.237,-2.2358,-2.2378,-2.2376,-2.2351,-2.2466,-2.2483,-2.2566,-2.2409,-2.276,-2.2771,-2.2782,-2.291,-2.2935,-2.2955,0,0,0,0,0,-2.22,-2.2321,-2.2288,-2.2305,-2.2384,-2.2465,-2.2475,-2.2441,-2.2377,-2.2434,-2.2432,-2.2376,-2.2547,-2.2478,-2.2497,-2.2583,-2.2754,-2.2768,-2.2781,-2.29,-2.293,-2.2955,0,0,0,0,0,0,-2.232,-2.2322,-2.2285,-2.2413,-2.244,-2.2446,-2.2518,-2.2473,-2.252,-2.2507,-2.2464,-2.247,-2.2589,-2.2596,-2.252,-2.2733,-2.264,-2.2658,-2.2724,-2.2752,-2.2774,-2.2771,-2.2415,0,0,0,0,0,-2.2361,-2.2425,-2.2424,-2.2537,-2.2552,-2.2533,-2.2567,-2.2539,-2.2566,-2.2577,-2.2581,-2.2611,-2.2671,-2.2711,-2.2766,-2.291,-2.2915,-2.2979,-2.3002,-2.3021,-2.3037,-2.3117,-2.3147,-2.2831,-2.2831,-2.2831,0,0,-2.2447,-2.2456,-2.2499,-2.2562,-2.2579,-2.2649,-2.2543,-2.2621,-2.2673,-2.2588,-2.2693,-2.2698,-2.2727,-2.2856,-2.2912,-2.2866,-2.3125,-2.3037,-2.3052,-2.3059,-2.3134,-2.3164,-2.319,-2.284,-2.2838,-2.2837,0,0,-2.2639,-2.2652,-2.2749,-2.2768,-2.2796,-2.2782,-2.2806,-2.282,-2.282,-2.2924,-2.2863,-2.2925,-2.3029,-2.3054,-2.308,-2.3285,-2.3237,-2.3304,-2.3423,-2.3502,-2.3527,-2.3548,-2.3625,-2.3652,-2.332,-2.332,-2.332,0,-2.2743,-2.2844,-2.2804,-2.2887,-2.2918,-2.2844,-2.2944,-2.2965,-2.301,-2.3034,-2.298,-2.3111,-2.3126,-2.326,-2.3311,-2.3333,-2.3361,-2.3302,-2.3526,-2.3547,-2.3567,-2.364,-2.3668,-2.3328,-2.3328,-2.3327,-2.3326,0,-2.2972,-2.3043,-2.3119,-2.3164,-2.3202,-2.3293,-2.327,-2.3314,-2.3284,-2.3277,-2.3385,-2.34,-2.3459,-2.3488,-2.3458,-2.362,-2.359,-2.3532,-2.3438,-2.3606,-2.3674,-2.3701,-2.334,-2.3337,-2.3335,-2.3333,0,0,-2.3241,-2.3264,-2.3293,-2.3314,-2.3339,-2.3395,-2.3483,-2.354,-2.358,-2.3614,-2.3689,-2.378,-2.3727,-2.3757,-2.373,-2.3799,-2.3964,-2.3732,-2.3733,-2.3778,-2.4147,-2.4192,-2.4225,-2.3932,-2.3937,-2.3941,-2.4145,0,-2.3434,-2.3586,-2.3554,-2.3704,-2.3771,-2.3703,-2.3781,-2.3807,-2.3803,-2.3861,-2.3858,-2.3924,-2.3848,-2.3866,-2.393,-2.393,-2.4038,-2.3915,-2.4004,-2.4008,-2.4001,-2.4259,-2.4307,-2.4499,-2.4171,-2.4175,-2.4178,0,-2.3679,-2.3723,-2.388,-2.3897,-2.3924,-2.3995,-2.4045,-2.4101,-2.413,-2.4123,-2.4157,-2.4118,-2.4209,-2.4113,-2.4239,-2.4156,-2.4191,-2.4196,-2.4203,-2.4212,-2.4105,-2.4278,-2.4559,-2.4589,-2.4219,-2.4216,-2.4213,0,-2.3864,-2.3961,-2.4068,-2.4088,-2.411,-2.4162,-2.4174,-2.4197,-2.4234,-2.4279,-2.4303,-2.4358,-2.4389,-2.4434,-2.4412,-2.4343,-2.4544,-2.4445,-2.4543,-2.4544,-2.459,-2.4588,-2.4884,-2.4609,-2.4608,-2.4608,-2.4607,0,-2.4084,-2.4184,-2.4152,-2.4218,-2.4328,-2.4292,-2.4402,-2.4406,-2.4429,-2.4496,-2.444,-2.4506,-2.4471,-2.4534,-2.4517,-2.4627,-2.464,-2.4639,-2.4634,-2.4646,-2.4646,-2.4669,-2.4657,-2.4615,-2.4613,-2.4612,-2.4611,0,-2.4309,-2.4291,-2.4404,-2.4417,-2.4422,-2.4504,-2.4515,-2.4578,-2.4571,-2.4658,-2.4676,-2.4666,-2.4737,-2.4719,-2.4797,-2.4786,-2.4925,-2.4902,-2.4916,-2.4911,-2.5011,-2.5003,-2.5334,-2.5377,-2.5072,-2.5075,-2.5078,0,-2.4452,-2.4527,-2.4548,-2.4589,-2.4605,-2.4672,-2.4709,-2.4677,-2.4719,-2.4759,-2.4818,-2.4885,-2.4937,-2.5055,-2.5056,-2.5117,-2.5096,-2.5208,-2.5105,-2.5115,-2.5101,-2.5098,-2.5107,-2.5229,-2.5233,-2.5235,-2.5238,0,-2.4708,-2.4696,-2.4752,-2.4807,-2.4853,-2.4894,-2.493,-2.4967,-2.4938,-2.4989,-2.5061,-2.5102,-2.5182,-2.5251,-2.5307,-2.5321,-2.5277,-2.527,-2.5297,-2.531,-2.5316,-2.5318,-2.4974,-2.5263,-2.526,-2.5259,-2.5257,-2.5256,-2.4898,-2.4963,-2.4988,-2.5054,-2.5077,-2.5113,-2.5174,-2.5175,-2.5235,-2.5297,-2.5275,-2.5359,-2.5389,-2.546,-2.5481,-2.5548,-2.5506,-2.5544,-2.5554,-2.5564,-2.5578,-2.5304,-2.5558,-2.5557,-2.5556,-2.5556,-2.5555,0,-2.5154,-2.5167,-2.5227,-2.528,-2.5333,-2.5284,-2.5323,-2.537,-2.5445,-2.5476,-2.5528,-2.5614,-2.568,-2.5687,-2.575,-2.5803,-2.5785,-2.5821,-2.5818,-2.5823,-2.5611,-2.5583,-2.5835,-2.5835,-2.5835,-2.5835,-2.5835,-2.5835,-2.5293,-2.5401,-2.5393,-2.5513,-2.5526,-2.5608,-2.5634,-2.5668,-2.5693,-2.5791,-2.5846,-2.5849,-2.5872,-2.5937,-2.5997,-2.5997,-2.6025,-2.607,-2.6063,-2.5865,-2.5837,-2.5811,-2.5785,-2.6076,-2.6076,-2.627,-2.6272,-2.6273]},{"header":{"parameterUnit":"m.s-1","parameterCategory":1,"la1":30.2991,"la2":30.254,"lo1":-89.0895,"lo2":-89.0444,"dy":0.0017,"dx":0.0017,"nx":28,"ny":28,"refTime":"2025-05-21T21:00:00:Z","depth":0,"parameterNumber":3,"parameterNumberName":"V-component_of_WINDS"},"data":[0,0,0,0,0,0,0,0,0,0,0,0,0,0,0,0,0,0,0,0,0,0,0,0,0,0,0,0,0,0,0,0,0,0,0,0,0,0,0,0,0,0,0,0,0,0,0,0,0,0,0,0,0,0,0,0,0,0,0.0182,0.0182,0,0.0187,0.0187,0.0187,0.0128,0.0126,0.0125,0.0123,0.0127,0.0129,0.013,0,0,0,0,0,0,0,0,0,0,0,0,0,0.0121,0.0123,0.0182,0.0182,0.0182,0.0187,0.0187,0.0187,0.0128,0.0126,0.0124,0.0122,0.0126,0.0128,0.013,0,0,0,0,0,0,0,0,0,0,0,0,0,0.0139,0.0123,0.0182,0.0153,0.0151,0.0187,0.0187,0.0187,0.0129,0.0126,0.0124,0.0122,0.0126,0.0128,0.0131,0.0194,0,0,0.0138,0.0139,0,0,0,0,0,0,0,0,0.0138,0.0141,0.0158,0.0155,0.0153,0.0154,0.0167,0.0189,0.0129,0.0137,0.0123,0.012,0.0138,0.0139,0.0145,0.0194,0.0194,0.0138,0.0139,0.0141,0.0141,0,0,0,0,0,0,0,0.0137,0.0141,0.0184,0.0158,0.0155,0.014,0.014,0.0171,0.0151,0.0136,0.0132,0.0133,0.0136,0.0143,0.0145,0.0194,0.0138,0.014,0.0142,0.0143,0.0296,0.0298,0,0,0,0,0,0,0.014,0.014,0.0184,0.0184,0.0139,0.0143,0.0143,0.0156,0.015,0.0147,0.0135,0.0131,0.014,0.0142,0.0145,0.0219,0.0141,0.0143,0.0144,0.0293,0.0296,0.0299,0,0,0,0,0,0,0.0139,0.0144,0.0183,0.0161,0.0165,0.0147,0.0162,0.0158,0.0165,0.015,0.0146,0.0146,0.0138,0.0142,0.0182,0.0219,0.0144,0.0146,0.029,0.0294,0.0298,0.0369,0,0,0,0,0,0,0.0137,0.0144,0.0168,0.0162,0.0166,0.0221,0.0164,0.0159,0.0169,0.0163,0.0159,0.0156,0.0137,0.0179,0.0185,0.0221,0.0148,0.0286,0.0292,0.0296,0.0363,0.0374,0.0384,0,0,0,0,0,0.0135,0.0187,0.017,0.0175,0.0196,0.0223,0.0226,0.0203,0.0172,0.0196,0.0187,0.0156,0.0214,0.0184,0.019,0.0227,0.0284,0.029,0.0296,0.0358,0.0372,0.0384,0,0,0,0,0,0,0.0197,0.0186,0.0166,0.0218,0.0222,0.0213,0.0243,0.0218,0.0231,0.0225,0.0195,0.0195,0.0241,0.0237,0.0204,0.0288,0.0243,0.0251,0.0289,0.0302,0.0312,0.0313,0.015,0,0,0,0,0,0.0217,0.0241,0.0229,0.0276,0.0279,0.0261,0.0272,0.0254,0.0257,0.0258,0.0252,0.0256,0.0275,0.0288,0.0304,0.0362,0.0361,0.039,0.0401,0.041,0.0417,0.0448,0.0462,0.0318,0.0318,0.0318,0,0,0.0258,0.0255,0.0271,0.0288,0.0289,0.0315,0.0263,0.0291,0.031,0.0262,0.0301,0.0297,0.0299,0.0349,0.037,0.0348,0.0456,0.0417,0.0425,0.0427,0.0456,0.0469,0.0482,0.0322,0.0322,0.0321,0,0,0.0345,0.0345,0.0385,0.0387,0.039,0.0378,0.0388,0.0383,0.0378,0.0417,0.0382,0.0404,0.0437,0.044,0.0446,0.0537,0.051,0.0543,0.0599,0.063,0.0642,0.0652,0.0685,0.0697,0.055,0.055,0.055,0,0.0396,0.0433,0.0408,0.0439,0.0448,0.0408,0.0448,0.0451,0.0459,0.0466,0.0441,0.0482,0.0481,0.0532,0.0554,0.056,0.057,0.0544,0.0642,0.0652,0.0661,0.0692,0.0705,0.0554,0.0554,0.0553,0.0553,0,0.0495,0.0522,0.0553,0.0563,0.0576,0.0611,0.0592,0.0607,0.0588,0.0579,0.0619,0.0616,0.0632,0.0642,0.0624,0.0691,0.0677,0.0647,0.0602,0.0679,0.0708,0.072,0.056,0.0559,0.0557,0.0556,0,0,0.0622,0.0619,0.0631,0.0635,0.0636,0.0656,0.069,0.0706,0.0721,0.0728,0.0756,0.0785,0.0758,0.0766,0.0747,0.0774,0.0848,0.0741,0.0741,0.0762,0.0923,0.0946,0.0961,0.0829,0.0831,0.0833,0.0923,0,0.0708,0.0767,0.0746,0.0806,0.0831,0.0793,0.0822,0.0826,0.0818,0.0838,0.0829,0.0851,0.0813,0.0817,0.0842,0.0834,0.088,0.0826,0.0856,0.0857,0.0858,0.0976,0.1,0.1085,0.0934,0.0936,0.0937,0,0.0817,0.083,0.0893,0.0891,0.09,0.0927,0.0941,0.096,0.0964,0.0957,0.0965,0.0941,0.0975,0.0929,0.0975,0.0939,0.095,0.0948,0.095,0.0953,0.0903,0.0983,0.1111,0.1125,0.0955,0.0954,0.0952,0,0.0904,0.0937,0.098,0.0985,0.0983,0.1003,0.1003,0.1005,0.1016,0.1028,0.1036,0.1051,0.106,0.1072,0.1053,0.1022,0.1103,0.1055,0.1098,0.1099,0.1117,0.1116,0.1251,0.1122,0.1122,0.1122,0.1122,0,0.1004,0.1044,0.1019,0.1045,0.109,0.1065,0.1109,0.1105,0.1107,0.1132,0.1099,0.1123,0.1096,0.1117,0.1102,0.1143,0.1147,0.1142,0.1138,0.1146,0.1147,0.1153,0.1147,0.1125,0.1125,0.1124,0.1123,0,0.1109,0.1094,0.1138,0.1134,0.1133,0.1166,0.1162,0.1186,0.1176,0.1208,0.1214,0.1199,0.1222,0.1204,0.1227,0.1217,0.1272,0.1259,0.1271,0.1268,0.1312,0.1309,0.1456,0.1475,0.1334,0.1335,0.1336,0,0.1174,0.1204,0.1204,0.1219,0.1221,0.1245,0.1257,0.1234,0.1248,0.1256,0.1279,0.13,0.1315,0.1355,0.1345,0.1363,0.1351,0.1401,0.1353,0.136,0.1353,0.1352,0.1355,0.1411,0.1413,0.1414,0.1415,0,0.1291,0.1283,0.1302,0.1319,0.1335,0.1347,0.1356,0.137,0.1347,0.1364,0.1389,0.1401,0.1425,0.1446,0.1461,0.146,0.1435,0.143,0.1441,0.145,0.1457,0.1455,0.1299,0.1427,0.1426,0.1425,0.1424,0.1424,0.1379,0.1405,0.1409,0.1432,0.1437,0.1447,0.147,0.1463,0.1484,0.1502,0.1487,0.1516,0.152,0.1537,0.154,0.1563,0.1542,0.1558,0.1562,0.1566,0.1573,0.1453,0.1565,0.1565,0.1564,0.1564,0.1564,0,0.1495,0.1496,0.1518,0.1533,0.1551,0.1526,0.1535,0.1552,0.1579,0.1585,0.1601,0.163,0.1651,0.1644,0.1662,0.1682,0.167,0.1688,0.1686,0.1687,0.159,0.1579,0.1697,0.1697,0.1697,0.1697,0.1697,0.1696,0.1558,0.1601,0.1593,0.1639,0.1639,0.1669,0.1677,0.1686,0.1691,0.1725,0.1742,0.1738,0.1739,0.1757,0.1776,0.1773,0.1782,0.1804,0.1797,0.1707,0.1694,0.1681,0.1671,0.1805,0.1806,0.1892,0.1893,0.1893]}]]